Regional Weather Roundup
Issued by NWS

Home | Current Version | Previous Version | Text Only | Print | Product List | Glossary Off
Versions: 1 2 3 4 5 6 7 8 9 10 11 12 13 14 15 16 17 18 19 20 21 22 23 24 25 26 27 28 29 30 31 32 33 34 35 36 37 38 39 40 41 42 43 44 45 46 47 48 49 50

966
ASUS45 KSLC 231410
RWRUT

UTAH REGIONAL WEATHER ROUNDUP
NATIONAL WEATHER SERVICE SALT LAKE CITY UT
800 AM MDT SAT JUL 23 2016

UTZ001>011-023>025-231500-

NORTHERN UTAH

CITY           SKY/WX    TMP DP  RH WIND       PRES   REMARKS
BRIGHAM CITY     N/A     64  32  31 NW6       30.15S
HILL AFB       SUNNY     67  37  32 E13       30.17R
LOGAN          SUNNY     61  42  49 CALM      30.18S
OGDEN          SUNNY     69  38  32 S6        30.15R
PROVO AIRPORT  MOSUNNY   70  50  49 CALM      30.16R
SALT LAKE CITY MOSUNNY   73  36  25 CALM      30.13S
VERNAL         SUNNY     69  51  52 CALM      30.19R
WENDOVER       SUNNY     73  30  20 CALM      30.18R
HEBER CITY     SUNNY     61  50  67 CALM      30.23R

$$

UTZ012>022-026-027-231500-

SOUTHERN/CENTRAL UTAH

CITY           SKY/WX    TMP DP  RH WIND       PRES   REMARKS
BLANDING       MOSUNNY   72  48  41 NE3       30.31R
BRYCE CANYON   SUNNY     58  47  66 W5        30.37S
CEDAR CITY     SUNNY     74  39  28 SE7       30.20R
DELTA          SUNNY     72  30  21 CALM      30.17R
MILFORD        SUNNY     69  28  21 NE5       30.17R
MOAB/CYNLANDS  SUNNY     77  52  41 E6        30.12R
PRICE          SUNNY     71  50  47 CALM      30.22R
ST GEORGE      SUNNY     84  45  24 SE7       30.01S
KANAB          SUNNY     72  48  43 N3        30.20R

$$

REGIONAL REPORTS     COLORADO/ARIZONA

CITY           SKY/WX    TMP DP  RH WIND       PRES   REMARKS
CRAIG, CO      SUNNY     61  48  62 NW3       30.28R
GRAND JUNCTION SUNNY     70  54  56 SE14      30.17R
RIFLE          SUNNY     65  53  65 CALM      30.25R
MONTROSE       SUNNY     65  50  58 SE6       30.27S
CORTEZ         SUNNY     65  50  58 S3        30.26R
PAGE, AZ       SUNNY     80  49  33 CALM      30.11R
GRAND CANYON   SUNNY     64  53  67 NE6       30.31R
KINGMAN        SUNNY     87  46  24 SE5       30.03R
FLAGSTAFF      SUNNY     61  50  67 CALM      30.33R

$$

REGIONAL REPORTS    NEVADA/IDAHO/WYOMING

CITY           SKY/WX    TMP DP  RH WIND       PRES   REMARKS
LAS VEGAS, NV  MOSUNNY   90  30  11 CALM      29.87R
ELY            MOSUNNY   51  21  30 S10       30.29R
ELKO           SUNNY     51  19  28 CALM      30.25R
POCATELLO, ID  SUNNY     64  41  42 SW20G26   30.20S
BURLEY         SUNNY     61  43  51 W14G22    30.18R
EVANSTON, WY   SUNNY     62  34  35 CALM      30.33R
ROCK SPRINGS   SUNNY     65  36  34 SW6       30.28S
KEMMERER         N/A     57  32  38 N3        30.33R

$$




USA.gov is the U.S. government's official web portal to all federal, state and local government web resources and services.